When you browse on this site, cookies collect data to enhance your experience and personalize the content and advertising you see.
Visit our Privacy Policy to learn more. By continuing to use the site, you agree to this use of cookies and data.
  • In Latvia
  • List of Countries
  • For 7 days
  • Water Temperature
  • Satellite Maps
  • Weather Map
  • Weather Widgets
  • user-avatar
    Login

    Hourly Weather Munina

    Today, 27 May, Monday

    Time Temperature Precipitation Wind Pressure Humidity
    00:00 +15°C° 0 mm 2 mps 743 mmHg 91%
    01:00 +15°C° 0 mm 2 mps 743 mmHg 92%
    02:00 +14°C° 0 mm 2 mps 743 mmHg 92%
    03:00 +14°C° 0 mm 2 mps 743 mmHg 92%
    04:00 +14°C° 0 mm 2 mps 743 mmHg 93%
    05:00 +14°C° 0 mm 2 mps 743 mmHg 93%
    06:00 +16°C° 0 mm 3 mps 743 mmHg 89%
    07:00 +18°C° 0 mm 3 mps 743 mmHg 85%
    08:00 +19°C° 0 mm 4 mps 743 mmHg 82%
    09:00 +21°C° 0 mm 4 mps 743 mmHg 76%
    10:00 +22°C° 0 mm 4 mps 743 mmHg 70%
    11:00 +25°C° 0 mm 4 mps 743 mmHg 65%
    12:00 +25°C° 0.1 mm 4 mps 743 mmHg 62%
    13:00 +26°C° 0.1 mm 4 mps 742 mmHg 60%
    14:00 +26°C° 0.1 mm 4 mps 742 mmHg 58%
    15:00 +25°C° 0 mm 4 mps 742 mmHg 62%
    16:00 +23°C° 0 mm 4 mps 742 mmHg 67%
    17:00 +22°C° 0 mm 4 mps 741 mmHg 71%
    18:00 +21°C° 0 mm 3 mps 741 mmHg 74%
    19:00 +20°C° 0 mm 2 mps 741 mmHg 78%
    20:00 +19°C° 0 mm 2 mps 740 mmHg 82%
    21:00 +18°C° 0 mm 2 mps 740 mmHg 83%
    22:00 +18°C° 0 mm 2 mps 740 mmHg 85%
    23:00 +17°C° 0 mm 2 mps 740 mmHg 86%

    Tomorrow, 28 May, Tuesday

    Time Temperature Precipitation Wind Pressure Humidity
    00:00 +17°C° 0.7 mm 2 mps 740 mmHg 89%
    01:00 +18°C° 0.7 mm 2 mps 739 mmHg 91%
    02:00 +18°C° 0.7 mm 2 mps 739 mmHg 94%
    03:00 +17°C° 0 mm 3 mps 739 mmHg 94%
    04:00 +17°C° 0 mm 3 mps 739 mmHg 94%
    05:00 +17°C° 0 mm 3 mps 738 mmHg 95%
    06:00 +18°C° 0 mm 3 mps 738 mmHg 91%
    07:00 +20°C° 0 mm 4 mps 738 mmHg 87%
    08:00 +21°C° 0 mm 4 mps 738 mmHg 84%
    09:00 +22°C° 1.1 mm 4 mps 738 mmHg 79%
    10:00 +23°C° 1.1 mm 4 mps 738 mmHg 74%
    11:00 +25°C° 1.1 mm 4 mps 738 mmHg 70%
    12:00 +25°C° 2.4 mm 3 mps 738 mmHg 73%
    13:00 +25°C° 2.4 mm 3 mps 737 mmHg 76%
    14:00 +24°C° 2.4 mm 2 mps 737 mmHg 79%
    15:00 +24°C° 1.9 mm 2 mps 737 mmHg 78%
    16:00 +24°C° 1.9 mm 2 mps 737 mmHg 77%
    17:00 +24°C° 1.9 mm 2 mps 736 mmHg 76%
    18:00 +23°C° 1.1 mm 2 mps 736 mmHg 79%
    19:00 +21°C° 1.1 mm 2 mps 736 mmHg 83%
    20:00 +19°C° 1.1 mm 3 mps 736 mmHg 86%
    21:00 +19°C° 0.4 mm 3 mps 736 mmHg 87%
    22:00 +18°C° 0.4 mm 3 mps 737 mmHg 89%
    23:00 +17°C° 0.4 mm 3 mps 737 mmHg 91%

    Day after tomorrow, 29 May, Wednesday

    Time Temperature Precipitation Wind Pressure Humidity
    00:00 +17°C° 0 mm 3 mps 737 mmHg 91%
    01:00 +16°C° 0 mm 2 mps 737 mmHg 91%
    02:00 +16°C° 0 mm 2 mps 737 mmHg 91%
    03:00 +14°C° 0 mm 3 mps 738 mmHg 93%
    04:00 +14°C° 0 mm 3 mps 738 mmHg 94%
    05:00 +13°C° 0 mm 3 mps 738 mmHg 95%
    06:00 +14°C° 0 mm 3 mps 739 mmHg 94%
    07:00 +16°C° 0 mm 3 mps 739 mmHg 93%
    08:00 +17°C° 0 mm 3 mps 740 mmHg 92%
    09:00 +17°C° 0 mm 3 mps 740 mmHg 91%
    10:00 +17°C° 0 mm 3 mps 741 mmHg 89%
    11:00 +18°C° 0 mm 3 mps 741 mmHg 88%
    12:00 +18°C° 0.1 mm 4 mps 742 mmHg 86%
    13:00 +18°C° 0.1 mm 4 mps 742 mmHg 85%
    14:00 +19°C° 0.1 mm 4 mps 742 mmHg 83%
    15:00 +18°C° 0.1 mm 4 mps 742 mmHg 84%
    16:00 +18°C° 0.1 mm 3 mps 743 mmHg 85%
    17:00 +17°C° 0.1 mm 3 mps 743 mmHg 86%
    18:00 +17°C° 0.1 mm 3 mps 743 mmHg 88%
    19:00 +16°C° 0.1 mm 3 mps 743 mmHg 89%
    20:00 +16°C° 0.1 mm 3 mps 743 mmHg 90%
    21:00 +14°C° 0.1 mm 3 mps 744 mmHg 91%
    22:00 +14°C° 0.1 mm 3 mps 744 mmHg 91%
    23:00 +14°C° 0.1 mm 2 mps 744 mmHg 92%

    30 May, Thursday

    Time Temperature Precipitation Wind Pressure Humidity
    00:00 +14°C° 0 mm 2 mps 744 mmHg 93%
    01:00 +13°C° 0 mm 2 mps 744 mmHg 94%
    02:00 +13°C° 0 mm 2 mps 744 mmHg 95%
    03:00 +13°C° 0 mm 2 mps 744 mmHg 95%
    04:00 +13°C° 0 mm 2 mps 744 mmHg 95%
    05:00 +13°C° 0 mm 1 mps 744 mmHg 95%
    06:00 +14°C° 0.2 mm 1 mps 744 mmHg 94%
    07:00 +14°C° 0.2 mm 2 mps 745 mmHg 92%
    08:00 +15°C° 0.2 mm 2 mps 745 mmHg 91%
    09:00 +15°C° 0.4 mm 2 mps 745 mmHg 91%
    10:00 +16°C° 0.4 mm 2 mps 745 mmHg 91%
    11:00 +16°C° 0.4 mm 2 mps 745 mmHg 91%
    12:00 +17°C° 0.1 mm 2 mps 745 mmHg 90%
    13:00 +17°C° 0.1 mm 2 mps 745 mmHg 88%
    14:00 +18°C° 0.1 mm 3 mps 745 mmHg 87%
    15:00 +18°C° 0.1 mm 3 mps 746 mmHg 87%
    16:00 +18°C° 0.1 mm 3 mps 746 mmHg 87%
    17:00 +18°C° 0.1 mm 3 mps 746 mmHg 87%
    18:00 +17°C° 0 mm 3 mps 746 mmHg 89%
    19:00 +16°C° 0 mm 2 mps 746 mmHg 91%
    20:00 +16°C° 0 mm 2 mps 746 mmHg 93%
    21:00 +15°C° 0 mm 2 mps 746 mmHg 94%
    22:00 +15°C° 0 mm 2 mps 746 mmHg 94%
    23:00 +14°C° 0 mm 2 mps 746 mmHg 94%

    31 May, Friday

    Time Temperature Precipitation Wind Pressure Humidity
    00:00 +14°C° 0.1 mm 2 mps 746 mmHg 94%
    01:00 +14°C° 0.1 mm 2 mps 745 mmHg 94%
    02:00 +14°C° 0.1 mm 2 mps 745 mmHg 94%
    03:00 +13°C° 0 mm 2 mps 745 mmHg 95%
    04:00 +13°C° 0 mm 2 mps 745 mmHg 96%
    05:00 +13°C° 0 mm 2 mps 745 mmHg 96%
    06:00 +13°C° 0 mm 2 mps 744 mmHg 95%
    07:00 +14°C° 0 mm 1 mps 744 mmHg 94%
    08:00 +14°C° 0 mm 1 mps 744 mmHg 93%
    09:00 +15°C° 0.1 mm 1 mps 744 mmHg 91%
    10:00 +16°C° 0.1 mm 1 mps 743 mmHg 88%
    11:00 +18°C° 0.1 mm 1 mps 743 mmHg 86%
    12:00 +19°C° 0.1 mm 1 mps 743 mmHg 82%
    13:00 +18°C° 0.1 mm 0 mps 743 mmHg 78%
    14:00 +20°C° 0.1 mm 0 mps 742 mmHg 74%
    15:00 +21°C° 0.2 mm 1 mps 742 mmHg 76%
    16:00 +21°C° 0.2 mm 1 mps 742 mmHg 77%
    17:00 +21°C° 0.2 mm 1 mps 742 mmHg 79%
    18:00 +20°C° 0.7 mm 1 mps 742 mmHg 83%
    19:00 +18°C° 0.7 mm 2 mps 743 mmHg 86%
    20:00 +17°C° 0.7 mm 2 mps 744 mmHg 90%
    21:00 +13°C° 0.5 mm 4 mps 744 mmHg 91%
    22:00 +10°C° 0.5 mm 6 mps 745 mmHg 92%
    23:00 +7°C° 0.5 mm 8 mps 746 mmHg 92%

    1 June, Saturday

    Time Temperature Precipitation Wind Pressure Humidity
    00:00 +6°C° 0.2 mm 8 mps 747 mmHg 91%
    01:00 +6°C° 0.2 mm 7 mps 747 mmHg 90%
    02:00 +5°C° 0.2 mm 7 mps 748 mmHg 89%
    03:00 +5°C° 0.1 mm 6 mps 748 mmHg 88%
    04:00 +5°C° 0.1 mm 6 mps 749 mmHg 88%
    05:00 +6°C° 0.1 mm 5 mps 749 mmHg 88%
    06:00 +7°C° 0 mm 6 mps 749 mmHg 84%
    07:00 +8°C° 0 mm 6 mps 750 mmHg 80%
    08:00 +8°C° 0 mm 6 mps 750 mmHg 76%
    09:00 +9°C° 0 mm 6 mps 750 mmHg 70%
    10:00 +10°C° 0 mm 6 mps 750 mmHg 65%
    11:00 +13°C° 0 mm 6 mps 750 mmHg 59%
    12:00 +12°C° 0 mm 7 mps 750 mmHg 59%
    13:00 +14°C° 0 mm 7 mps 750 mmHg 58%
    14:00 +15°C° 0 mm 7 mps 750 mmHg 57%
    15:00 +15°C° 0 mm 7 mps 750 mmHg 60%
    16:00 +15°C° 0 mm 6 mps 750 mmHg 62%
    17:00 +15°C° 0 mm 6 mps 750 mmHg 65%
    18:00 +14°C° 0 mm 5 mps 750 mmHg 67%
    19:00 +13°C° 0 mm 5 mps 750 mmHg 69%
    20:00 +12°C° 0 mm 4 mps 751 mmHg 72%
    21:00 +12°C° 0 mm 4 mps 751 mmHg 72%
    22:00 +11°C° 0 mm 4 mps 751 mmHg 71%
    23:00 +11°C° 0 mm 4 mps 751 mmHg 71%
    Show more